Wind_Speed
24 24 24 22 22 24 26 27 28 27 28 29 26 30 30 33 35 35 35 35 35 33 33 33 35 34 36 37 40 44 47 50 54 56 54 54 54 54 53 52 52 51 55 59 61 62 66
25 22 21 23 22 25 25 25 28 27 25 29 30 30 31 33 37 37 36 34 34 33 35 38 39 40 41 43 48 52 55 59 63 64 60 58 59 58 59 60 64 61 60 61 64 66 66
26 28 26 29 28 27 25 27 27 27 26 29 31 32 32 36 38 37 36 35 35 35 39 44 46 48 51 51 55 59 64 67 68 66 66 65 64 66 63 64 63 65 66 68 67 70 69
32 29 30 32 31 32 26 30 30 29 28 32 31 31 34 39 39 37 38 39 36 40 44 49 51 55 56 59 64 68 70 69 69 71 72 72 72 70 69 68 68 69 67 68 71 73 75
36 36 35 34 37 32 28 30 29 31 29 31 30 32 37 40 38 39 41 42 43 45 47 52 57 60 61 67 70 74 75 75 77 77 78 78 77 76 75 73 69 62 57 60 67 75 81
37 34 36 37 38 34 29 33 32 30 30 31 31 36 40 41 40 41 43 45 48 49 53 55 59 69 73 75 78 79 80 78 84 84 85 84 80 76 71 67 61 60 58 57 61 69 78
39 37 36 36 33 34 29 33 31 29 32 31 32 37 42 43 42 44 45 48 51 53 56 61 68 74 78 83 82 78 81 85 87 87 83 78 70 65 66 66 65 63 59 56 55 60 66
35 37 34 31 35 29 29 27 30 32 35 39 38 39 44 43 44 47 50 52 56 61 62 66 72 80 84 82 85 86 89 90 86 81 77 75 74 77 73 72 71 69 66 62 63 61 64
33 34 36 37 27 24 26 31 34 37 38 40 40 42 44 44 45 49 52 56 62 70 73 76 80 84 85 87 91 89 88 86 82 81 81 79 79 83 84 81 78 75 73 74 70 70 71
26 29 32 32 31 31 25 30 33 36 37 38 40 42 42 45 46 49 53 60 68 74 77 84 87 86 87 88 86 82 80 83 89 88 90 86 87 89 90 88 85 78 81 81 78 79 77
25 24 23 23 28 33 35 33 35 36 37 38 42 42 42 44 47 51 57 66 71 76 87 87 89 91 86 82 82 85 87 84 81 81 83 78 85 87 88 83 88 81 87 86 88 87 86
21 22 21 22 24 31 32 33 33 34 36 40 40 41 43 45 52 58 65 67 74 83 88 93 95 86 86 87 83 76 74 72 69 73 74 71 80 82 82 86 87 82 92 90 93 91 90
25 24 24 24 26 27 29 29 30 33 34 34 36 39 43 51 56 60 66 74 81 87 91 90 85 88 85 78 78 77 66 63 58 57 60 62 64 70 74 80 81 84 84 87 89 91 86
24 26 26 27 24 22 25 28 30 29 31 33 38 42 48 51 55 63 72 78 87 90 87 85 86 89 85 74 71 67 57 51 48 48 50 52 53 60 64 67 70 75 75 77 81 79 79
14 15 15 18 21 22 20 23 25 28 31 32 38 43 46 51 61 68 77 84 88 86 81 84 86 83 76 67 57 53 47 42 40 39 39 41 45 47 53 56 59 62 58 65 69 71 73
13 11 14 19 21 19 21 25 27 28 31 34 39 46 51 59 65 74 78 87 88 83 85 83 75 69 60 54 49 42 33 27 26 27 26 27 31 37 43 46 48 50 53 55 54 57 65
14 13 14 16 19 20 20 23 25 28 29 36 43 48 56 62 71 76 84 87 80 82 80 78 71 64 55 47 39 37 31 27 22 22 22 21 20 25 29 34 38 41 42 44 46 50 56
16 13 15 16 15 17 20 24 23 28 33 38 44 53 59 67 73 79 86 81 83 81 78 76 67 59 53 44 38 35 33 29 22 17 14 13 13 15 18 23 26 31 33 36 40 44 51
16 14 16 18 19 14 18 22 24 30 36 41 48 55 63 69 76 82 83 81 84 81 78 72 63 57 51 45 40 35 29 21 16 13 9 5 6 8 11 14 17 21 24 28 33 35 37
15 18 19 18 19 19 22 25 32 36 40 45 52 57 64 72 78 82 79 85 83 79 75 68 59 53 46 43 34 31 20 15 13 9 6 3 3 6 8 12 18 19 20 20 23 28 30
18 23 25 24 24 25 28 33 37 38 42 45 51 60 65 74 78 82 80 86 82 75 71 62 54 48 41 35 32 29 20 18 16 11 8 8 8 7 10 12 16 22 22 19 19 20 23
22 25 24 25 23 26 30 32 35 38 40 46 53 58 67 72 76 76 81 86 78 74 68 59 50 44 35 32 27 23 18 20 16 10 9 14 19 14 11 16 18 20 22 20 19 20 21
22 23 22 21 26 28 29 32 33 36 40 47 53 61 68 70 76 74 81 84 74 67 63 55 46 41 33 29 24 20 16 18 18 16 15 16 20 24 22 23 27 27 29 26 23 21 22
18 16 19 23 22 26 30 32 34 35 40 46 52 60 65 68 76 73 79 80 70 64 60 52 44 38 27 25 27 18 16 16 18 16 18 19 26 26 26 24 29 29 29 27 25 23 22
17 17 21 22 22 26 29 32 34 34 38 45 51 59 62 68 71 71 74 79 69 64 60 53 44 38 28 23 21 15 13 15 17 17 16 20 25 27 26 28 30 32 34 29 28 27 27
20 21 21 22 25 29 31 33 33 30 37 43 50 58 59 65 66 69 71 75 71 65 60 53 47 37 30 22 20 17 12 11 12 15 13 19 25 30 31 36 31 31 42 40 39 38 36
19 19 22 24 24 28 32 31 25 28 36 41 49 52 58 66 60 69 74 74 70 67 60 53 46 37 30 22 20 14 10 8 14 14 13 16 25 33 33 40 37 36 42 48 53 46 43
20 21 23 25 27 29 32 28 24 27 34 41 46 49 57 62 59 66 72 75 74 74 66 57 50 41 32 23 17 15 11 7 15 12 10 15 18 26 37 38 37 40 43 49 53 47 48
22 23 25 28 31 26 28 18 19 26 32 39 42 48 55 58 56 63 68 74 74 74 71 62 55 47 37 30 24 17 13 6 9 12 12 9 17 26 38 40 36 40 39 42 55 53 50
Wind_Direction
227 228 234 245 251 253 258 266 270 282 280 287 286 292 289 300 300 297 293 290 289 286 284 286 289 292 294 295 295 298 297 296 296 295 290 282 277 276 272 266 261 256 255 250 247 247 244
236 242 250 254 246 254 257 267 272 276 280 282 283 292 293 297 298 296 294 290 286 283 285 290 293 298 300 299 297 297 298 297 295 292 287 280 274 272 269 268 266 263 262 259 251 245 242
241 250 253 253 250 250 256 265 270 274 280 282 282 287 292 295 297 296 298 291 288 286 291 292 296 299 302 299 298 298 298 295 291 289 285 283 279 275 275 271 264 261 259 257 254 248 241
252 249 246 249 251 248 254 265 270 270 279 282 283 286 293 296 295 296 298 293 292 293 296 296 296 297 298 298 297 298 295 292 290 288 285 283 281 279 276 273 271 268 261 255 250 248 243
254 259 250 251 260 248 254 266 270 271 280 282 284 285 294 298 295 297 294 292 291 295 299 296 298 299 296 294 295 296 297 292 289 287 285 283 281 278 278 274 272 265 259 252 247 243 241
255 254 251 259 257 247 254 266 273 274 280 280 284 283 295 298 294 295 295 293 294 298 298 298 298 298 299 297 294 294 292 292 289 287 285 282 278 276 274 268 262 254 251 251 247 243 241
247 250 253 254 250 246 247 263 270 275 278 284 287 290 295 296 293 294 295 295 297 298 300 300 299 301 299 297 295 293 290 290 288 285 282 278 274 270 268 265 260 256 254 253 252 249 245
239 245 242 246 249 252 257 264 266 276 282 287 289 292 296 295 292 295 297 296 299 298 297 300 301 300 300 298 295 292 290 288 285 280 275 271 270 269 265 262 258 255 252 252 247 246 244
244 245 244 234 247 251 258 264 273 280 284 286 290 293 296 295 296 298 300 301 299 299 301 301 302 302 298 297 294 292 290 287 282 277 273 267 266 264 264 261 256 251 251 249 247 243 242
247 241 240 243 242 241 281 273 276 286 285 289 291 296 297 298 297 298 299 299 301 303 304 305 303 302 301 298 295 290 284 279 278 275 272 271 267 263 261 259 258 252 249 246 245 243 240
240 247 255 258 261 258 275 280 282 282 284 289 294 294 298 297 299 300 301 303 305 308 309 308 307 305 301 297 294 291 289 283 277 273 272 270 265 262 260 260 256 251 247 244 243 242 240
252 254 260 263 262 266 273 279 280 284 286 290 294 298 299 300 300 302 306 308 311 313 314 313 310 307 304 302 299 291 287 283 279 277 271 263 262 259 257 252 250 245 245 242 241 240 240
249 258 263 263 273 275 276 277 280 282 288 293 298 300 300 300 304 308 312 314 316 318 317 314 311 309 310 307 305 302 298 293 286 277 272 267 260 258 255 253 250 249 245 243 241 240 241
258 260 262 266 272 272 275 279 283 288 294 300 301 301 305 310 312 315 316 320 322 320 318 318 317 316 314 312 308 303 301 293 285 278 272 267 260 256 256 253 252 250 246 243 243 242 241
247 250 264 271 275 278 286 289 293 300 303 304 306 308 312 317 317 319 323 324 322 322 323 322 320 317 317 316 311 306 304 297 289 282 273 266 261 256 252 251 250 249 247 246 245 243 237
250 268 281 275 277 278 282 289 303 309 311 311 314 318 321 318 321 324 326 325 325 327 326 324 324 324 322 321 317 314 309 302 294 290 282 267 260 253 250 247 246 244 238 240 240 237 233
259 271 285 289 289 299 295 301 308 308 308 315 318 321 319 321 327 328 329 327 330 331 330 330 331 331 331 330 328 329 331 328 319 308 299 289 274 257 247 241 239 237 235 236 236 231 230
256 273 287 311 318 304 300 301 307 310 315 317 319 321 321 327 330 331 330 334 336 334 337 336 337 337 337 341 342 340 336 331 326 315 303 282 260 250 242 233 234 233 229 227 222 222 225
257 259 288 305 315 317 311 309 306 310 315 319 323 325 326 332 333 333 335 338 339 341 340 339 341 342 342 349 346 348 341 338 334 334 323 282 249 222 205 209 207 207 213 219 219 220 224
256 267 287 291 307 312 321 308 311 316 322 323 324 326 331 335 336 336 340 340 344 343 341 343 344 345 350 348 351 352 351 359 10 16 13 348 210 186 180 187 179 177 182 194 204 210 213
265 274 283 287 298 307 307 312 316 321 326 325 325 329 334 336 338 340 342 343 347 345 345 347 347 349 353 352 358 350 8 24 25 29 62 75 80 109 129 141 156 154 158 171 184 194 202
267 270 275 284 299 305 307 318 318 326 325 324 326 334 334 339 340 344 345 347 348 347 349 350 350 352 357 356 7 356 21 37 36 27 52 83 80 78 93 122 129 143 144 149 158 171 184
263 267 278 289 303 302 311 318 325 324 323 325 333 333 338 340 343 347 350 350 351 350 352 353 354 353 358 0 9 7 22 53 50 51 67 100 106 103 112 132 135 139 139 137 144 154 164
269 275 290 296 300 301 308 314 319 322 320 330 330 335 338 343 348 349 353 353 355 354 356 358 357 357 4 5 3 10 31 51 64 72 89 108 114 119 128 139 132 140 139 141 147 141 135
275 281 291 293 302 309 312 316 321 321 330 327 332 336 341 347 348 351 354 358 360 1 2 360 3 2 3 13 11 6 27 55 67 67 95 112 120 123 128 130 135 135 122 116 114 116 123
280 283 290 294 297 307 311 313 318 323 327 325 333 336 343 347 350 349 356 1 5 6 7 4 3 7 4 12 20 19 14 48 82 87 113 132 134 133 135 131 144 149 129 128 119 125 127
274 282 293 295 300 304 314 308 312 323 323 325 334 340 346 349 350 353 358 3 10 10 11 13 9 12 13 16 33 12 14 42 83 96 134 155 153 147 152 148 151 147 141 133 133 137 137
267 281 288 294 305 304 303 304 314 324 320 328 336 343 348 352 353 355 358 4 12 15 13 15 16 18 23 20 34 45 32 40 92 96 147 170 166 166 159 156 157 152 155 143 147 150 145
279 282 289 299 307 305 304 299 324 319 320 331 339 345 350 353 356 358 0 6 13 18 17 18 18 19 24 29 30 45 53 45 99 119 173 176 186 174 170 171 176 168 168 160 153 156 155
Height
10643 10645 10647 10649 10650 10651 10652 10652 10653 10654 10654 10654 10653 10652 10650 10649 10647 10644 10642 10640 10638 10635 10632 10631 10630 10628 10626 10626 10623 10621 10620 10618 10616 10615 10614 10612 10611 10612 10614 10616 10618 10623 10623 10627 10628 10633 10637
10638 10640 10642 10643 10644 10646 10646 10647 10648 10649 10648 10648 10647 10645 10644 10642 10638 10635 10633 10632 10630 10627 10625 10623 10621 10618 10618 10616 10613 10609 10607 10604 10600 10597 10596 10594 10594 10595 10596 10598 10598 10605 10608 10608 10611 10614 10619
10633 10635 10636 10638 10639 10640 10641 10642 10643 10643 10643 10642 10641 10639 10637 10634 10630 10626 10625 10623 10621 10619 10616 10613 10611 10607 10606 10602 10598 10596 10592 10586 10582 10579 10575 10574 10574 10575 10578 10577 10580 10582 10586 10587 10591 10593 10600
10626 10628 10630 10632 10633 10635 10635 10636 10637 10637 10637 10637 10636 10633 10630 10626 10622 10619 10616 10612 10611 10610 10608 10602 10597 10594 10593 10588 10584 10582 10575 10567 10562 10558 10554 10551 10551 10553 10553 10554 10556 10556 10561 10567 10568 10571 10575
10620 10622 10624 10625 10627 10628 10630 10631 10631 10631 10631 10631 10629 10626 10623 10618 10615 10612 10606 10602 10600 10600 10597 10591 10585 10578 10577 10572 10567 10560 10555 10547 10540 10535 10530 10526 10527 10528 10530 10529 10531 10535 10537 10539 10539 10542 10545
10614 10616 10618 10619 10621 10622 10624 10625 10626 10626 10626 10624 10622 10619 10615 10610 10607 10603 10597 10592 10589 10589 10584 10578 10572 10562 10556 10551 10545 10539 10531 10524 10514 10508 10504 10501 10501 10505 10504 10503 10508 10506 10511 10516 10517 10519 10522
10608 10611 10612 10613 10615 10617 10618 10620 10621 10620 10619 10617 10615 10611 10608 10603 10598 10593 10589 10583 10578 10575 10571 10564 10557 10545 10534 10528 10520 10516 10506 10499 10492 10482 10476 10473 10476 10481 10480 10481 10484 10489 10497 10502 10504 10503 10507
10602 10604 10606 10608 10610 10612 10614 10615 10614 10613 10612 10610 10608 10604 10599 10594 10589 10584 10578 10572 10566 10560 10561 10552 10541 10529 10514 10501 10491 10486 10478 10469 10463 10457 10454 10451 10454 10450 10455 10458 10463 10469 10476 10483 10482 10483 10488
10596 10599 10600 10602 10606 10608 10609 10608 10609 10607 10605 10603 10600 10596 10591 10586 10582 10577 10568 10560 10551 10542 10537 10530 10520 10506 10490 10479 10464 10459 10448 10436 10431 10426 10423 10428 10431 10422 10420 10427 10435 10447 10455 10454 10460 10462 10465
10592 10595 10598 10600 10600 10601 10603 10604 10603 10601 10598 10596 10592 10589 10584 10578 10572 10567 10560 10551 10539 10525 10516 10505 10492 10478 10467 10451 10435 10428 10424 10413 10397 10394 10389 10396 10392 10389 10388 10395 10402 10421 10422 10428 10434 10436 10445
10589 10591 10593 10595 10596 10598 10599 10598 10597 10594 10592 10588 10584 10580 10575 10570 10565 10557 10549 10538 10525 10512 10490 10480 10461 10446 10434 10424 10413 10398 10380 10372 10367 10364 10357 10368 10351 10350 10353 10371 10370 10389 10386 10397 10401 10410 10416
10585 10587 10589 10591 10592 10593 10593 10591 10589 10588 10585 10581 10577 10572 10567 10561 10552 10544 10534 10523 10510 10493 10473 10449 10429 10418 10406 10386 10370 10361 10352 10339 10336 10327 10321 10328 10316 10315 10324 10323 10330 10350 10345 10362 10369 10381 10385
10582 10584 10585 10586 10587 10587 10587 10584 10583 10581 10579 10575 10569 10565 10559 10551 10543 10533 10520 10507 10489 10473 10451 10430 10412 10387 10371 10358 10339 10321 10318 10307 10303 10299 10293 10293 10293 10290 10293 10293 10305 10309 10323 10334 10343 10354 10371
10577 10579 10580 10581 10582 10582 10580 10579 10577 10575 10572 10568 10563 10558 10551 10542 10532 10520 10506 10489 10472 10454 10431 10406 10388 10360 10341 10335 10312 10296 10292 10284 10279 10274 10270 10268 10270 10268 10269 10275 10281 10284 10300 10315 10323 10340 10360
10574 10575 10576 10577 10577 10576 10575 10573 10571 10569 10566 10561 10557 10550 10542 10534 10522 10508 10491 10474 10456 10433 10415 10394 10368 10345 10324 10306 10296 10282 10273 10265 10259 10256 10253 10251 10250 10250 10250 10254 10262 10270 10283 10299 10307 10321 10335
10571 10573 10573 10572 10571 10571 10570 10569 10567 10563 10560 10555 10549 10541 10533 10522 10510 10495 10478 10460 10436 10416 10394 10373 10354 10333 10313 10295 10279 10268 10260 10254 10247 10242 10239 10237 10237 10236 10237 10241 10248 10256 10265 10274 10287 10300 10313
10569 10570 10570 10569 10568 10568 10566 10565 10562 10558 10553 10547 10541 10533 10524 10511 10498 10482 10464 10446 10422 10404 10381 10356 10333 10313 10297 10283 10270 10257 10248 10242 10237 10232 10229 10227 10227 10226 10228 10233 10239 10246 10256 10265 10275 10286 10299
10565 10567 10566 10565 10564 10563 10562 10559 10557 10552 10547 10541 10534 10525 10514 10503 10488 10471 10452 10427 10409 10385 10364 10340 10321 10302 10287 10274 10261 10252 10244 10236 10231 10228 10224 10222 10221 10221 10222 10227 10233 10239 10248 10256 10264 10275 10284
10562 10563 10562 10562 10561 10560 10557 10554 10551 10546 10540 10534 10526 10518 10506 10494 10479 10460 10438 10416 10396 10372 10350 10329 10312 10295 10280 10269 10259 10250 10242 10235 10230 10226 10223 10221 10219 10219 10221 10225 10230 10237 10244 10252 10260 10271 10282
10560 10559 10559 10558 10558 10556 10553 10550 10546 10541 10535 10527 10519 10510 10499 10485 10469 10449 10427 10405 10384 10363 10343 10322 10305 10292 10279 10268 10260 10252 10244 10237 10232 10228 10225 10223 10222 10222 10224 10226 10231 10237 10245 10252 10261 10268 10278
10556 10556 10556 10555 10554 10552 10549 10545 10541 10536 10529 10523 10515 10504 10492 10477 10460 10441 10420 10396 10377 10357 10336 10318 10303 10291 10280 10271 10260 10253 10247 10241 10236 10231 10228 10227 10227 10228 10230 10233 10237 10241 10248 10255 10263 10270 10278
10551 10552 10552 10552 10551 10548 10545 10542 10537 10532 10525 10518 10510 10499 10487 10471 10455 10437 10415 10391 10372 10349 10332 10315 10302 10291 10281 10273 10265 10259 10250 10245 10242 10238 10236 10235 10235 10236 10238 10240 10245 10248 10252 10258 10264 10270 10277
10547 10548 10548 10548 10546 10543 10541 10538 10533 10528 10521 10513 10503 10495 10482 10467 10451 10431 10411 10389 10369 10351 10332 10317 10302 10292 10283 10275 10269 10263 10256 10250 10248 10245 10244 10242 10240 10241 10243 10245 10248 10252 10255 10260 10267 10273 10281
10543 10544 10544 10544 10542 10540 10537 10533 10530 10523 10516 10510 10502 10491 10480 10464 10447 10430 10412 10389 10370 10349 10331 10318 10305 10295 10286 10277 10271 10267 10263 10257 10253 10252 10251 10249 10247 10248 10249 10252 10256 10258 10263 10267 10274 10282 10290
10539 10540 10540 10540 10539 10536 10533 10529 10525 10520 10514 10507 10500 10490 10477 10462 10449 10433 10416 10392 10370 10351 10332 10317 10306 10295 10287 10279 10275 10271 10267 10263 10260 10260 10259 10257 10256 10256 10258 10261 10264 10267 10272 10279 10288 10291 10296
10535 10535 10535 10535 10535 10532 10529 10526 10522 10517 10512 10505 10498 10488 10477 10465 10447 10435 10419 10400 10373 10355 10337 10321 10307 10298 10289 10282 10277 10274 10271 10267 10264 10264 10265 10264 10263 10264 10265 10268 10270 10272 10277 10283 10292 10298 10303
10531 10531 10531 10532 10531 10528 10526 10522 10518 10514 10510 10504 10496 10487 10476 10463 10447 10431 10415 10400 10380 10357 10342 10328 10314 10304 10294 10287 10280 10279 10275 10271 10269 10269 10269 10268 10269 10270 10270 10273 10276 10280 10284 10288 10296 10303 10306
10527 10527 10527 10527 10526 10524 10521 10517 10515 10512 10508 10501 10494 10486 10476 10462 10449 10434 10418 10401 10381 10361 10345 10331 10319 10310 10301 10293 10287 10281 10278 10275 10274 10274 10273 10273 10274 10275 10277 10280 10282 10284 10288 10291 10299 10306 10308
10522 10522 10522 10521 10520 10518 10516 10513 10512 10510 10505 10499 10492 10484 10475 10464 10452 10437 10423 10406 10391 10373 10352 10336 10323 10313 10305 10298 10290 10285 10282 10280 10278 10279 10278 10277 10279 10281 10283 10283 10284 10288 10292 10296 10303 10307 10311